{"data":{"norad_id":67084,"epoch":"2026-09-20T05:28:55.123392Z","epoch_age_seconds":102460,"freshness":"FRESH","line1":"1 67084U 25298K   26263.22841578  .00000659  00000+0  63025-4 0  9996","line2":"2 67084  69.9987 244.1004 0003725 273.3112  86.7621 14.98331720 42358","mean_motion":14.9833172,"eccentricity":0.0003725,"inclination_deg":69.9987,"raan_deg":244.1004,"arg_perigee_deg":273.3112,"mean_anomaly_deg":86.7621,"bstar":6.3025e-5,"rev_number":4235,"period_min":96.106888800299,"perigee_km":569.46162712082,"apogee_km":574.63951686196,"semimajor_km":6950.1875719914,"source":"CELESTRAK","updated_at":"2026-09-21T09:00:36.099135Z"}}